FNE2411 SAZN-SABE

Flight info

Callsign FNE2411
Flight time N/A
Altitude 35000
Route ISMIL UT655 EGOVI UT655 ASADA
Aircraft B738/M-SDFGILORW/S

Departure

Time 2026-04-12 19:50
Airport Presidente Perón International Airport (SAZN)

Arrival

Time N/A
Airport Aeroparque Jorge Newbery (SABE)
Time Latitude Longitude Altitude Speed Heading
2026-04-12 19:33 -38.95149 -68.14165 895 ft 0 kts 179°
2026-04-12 19:38 -38.95135 -68.14165 895 ft 2 kts 179°
2026-04-12 19:38 -38.95124 -68.14165 895 ft 0 kts 180°
2026-04-12 19:38 -38.95110 -68.14168 895 ft 2 kts 149°
2026-04-12 19:38 -38.95099 -68.14181 895 ft 2 kts 118°
2026-04-12 19:39 -38.95095 -68.14197 895 ft 0 kts 93°
2026-04-12 19:39 -38.95095 -68.14205 895 ft 1 kts 89°
2026-04-12 19:39 -38.95095 -68.14207 895 ft 0 kts 89°
2026-04-12 19:42 -38.95095 -68.14177 895 ft 7 kts 89°
2026-04-12 19:43 -38.94989 -68.14118 895 ft 10 kts 356°
2026-04-12 19:43 -38.94926 -68.14174 895 ft 12 kts 310°
2026-04-12 19:43 -38.94907 -68.14284 895 ft 14 kts 275°
2026-04-12 19:43 -38.94906 -68.14422 895 ft 16 kts 267°
2026-04-12 19:44 -38.94912 -68.14582 895 ft 19 kts 267°
2026-04-12 19:44 -38.94917 -68.14772 895 ft 22 kts 268°
2026-04-12 19:44 -38.94919 -68.14983 898 ft 23 kts 271°
2026-04-12 19:44 -38.94917 -68.15210 899 ft 26 kts 269°
2026-04-12 19:45 -38.94922 -68.15459 899 ft 29 kts 268°
2026-04-12 19:45 -38.94922 -68.15734 899 ft 31 kts 272°
2026-04-12 19:45 -38.94907 -68.16003 899 ft 27 kts 267°
2026-04-12 19:45 -38.94914 -68.16198 902 ft 17 kts 274°
2026-04-12 19:46 -38.94902 -68.16338 902 ft 14 kts 276°
2026-04-12 19:46 -38.94901 -68.16445 902 ft 9 kts 267°
2026-04-12 19:46 -38.94904 -68.16519 902 ft 6 kts 267°
2026-04-12 19:46 -38.94906 -68.16567 902 ft 4 kts 267°
2026-04-12 19:47 -38.94906 -68.16595 902 ft 2 kts 267°
2026-04-12 19:47 -38.94907 -68.16603 902 ft 0 kts 267°
2026-04-12 19:47 -38.94907 -68.16605 902 ft 0 kts 267°
2026-04-12 19:47 -38.94907 -68.16606 902 ft 0 kts 267°
2026-04-12 19:48 -38.94908 -68.16633 903 ft 2 kts 267°
2026-04-12 19:48 -38.94908 -68.16656 903 ft 6 kts 267°
2026-04-12 19:48 -38.94913 -68.16790 903 ft 20 kts 268°
2026-04-12 19:48 -38.94919 -68.16957 903 ft 13 kts 257°
2026-04-12 19:49 -38.94929 -68.17030 904 ft 1 kts 288°
2026-04-12 19:49 -38.94924 -68.17043 904 ft 1 kts 297°
2026-04-12 19:49 -38.94917 -68.17059 904 ft 3 kts 300°
2026-04-12 19:49 -38.94888 -68.17039 903 ft 10 kts 82°
2026-04-12 19:50 -38.94894 -68.16627 902 ft 93 kts 87°
2026-04-12 19:50 -38.94898 -68.15411 1023 ft 161 kts 90°
2026-04-12 19:50 -38.94899 -68.13950 1909 ft 171 kts 90°
2026-04-12 19:50 -38.94935 -68.12262 2332 ft 210 kts 92°
2026-04-12 19:51 -38.95045 -68.10355 3346 ft 212 kts 91°
2026-04-12 19:51 -38.94684 -68.08415 3893 ft 242 kts 57°
2026-04-12 19:51 -38.93419 -68.06812 4819 ft 263 kts 39°